DW9612 Weather Reports


time (UTC)temp
C
wind
direction
speed
KPH
gust
KPH
rain 1hr
cm
rain 24hr
cm
rain mn
cm
humidity
%
barometer
mb
20260505223038 27 339 0.0 9.7 0.00 0.00 0.00 44 1008.7
20260505221559 27 321 0.0 11.3 0.00 0.00 0.00 43 1008.9
20260505220045 26 106 1.6 8.0 0.00 0.00 0.00 48 1009.0
20260505214531 26 22 3.2 9.7 0.00 0.00 0.00 43 1009.2
20260505213031 25 267 6.4 12.9 0.00 0.00 0.00 47 1009.2
20260505211538 25 305 4.8 9.7 0.00 0.00 0.00 48 1009.3
20260505210015 25 306 3.2 11.3 0.00 0.00 0.00 52 1009.4
20260505204528 25 267 4.8 11.3 0.00 0.00 0.00 51 1009.5
20260505203033 25 279 4.8 14.5 0.00 0.00 0.00 52 1009.6
20260505201538 24 326 3.2 11.3 0.00 0.00 0.00 54 1009.7
20260505200019 24 315 1.6 12.9 0.00 0.00 0.00 56 1009.7
20260505194523 23 292 4.8 11.3 0.00 0.00 0.00 55 1009.8
20260505193034 23 299 4.8 9.7 0.00 0.00 0.00 57 1009.8
20260505191539 23 331 4.8 9.7 0.00 0.00 0.00 56 1009.8
20260505190024 23 336 6.4 12.9 0.00 0.00 0.00 57 1009.8
20260505184531 23 315 3.2 12.9 0.00 0.00 0.00 57 1009.9
20260505183045 23 327 3.2 12.9 0.00 0.00 0.00 59 1009.8
20260505181536 23 324 3.2 14.5 0.00 0.00 0.00 60 1010.0
20260505180025 22 320 4.8 12.9 0.00 0.00 0.00 60 1009.9
20260505174526 22 317 1.6 8.0 0.00 0.00 0.00 57 1009.8
20260505173030 22 317 0.0 6.4 0.00 0.00 0.00 59 1009.8
20260505171534 21 311 0.0 3.2 0.00 0.00 0.00 61 1009.8
20260505170020 21 308 0.0 8.0 0.00 0.00 0.00 63 1009.8
20260505164521 21 309 3.2 9.7 0.00 0.00 0.00 63 1009.7
20260505163025 21 42 3.2 9.7 0.00 0.00 0.00 63 1009.6
20260505161533 20 165 4.8 9.7 0.00 0.00 0.00 63 1009.6
20260505153022 20 156 0.0 8.0 0.00 0.00 0.00 65 1009.5
20260505151535 19 156 3.2 8.0 0.00 0.00 0.00 66 1009.3
20260505124536 11 155 0.0 1.6 0.00 0.00 0.00 82 1007.8
20260505123031 11 144 0.0 0.0 0.00 0.00 0.00 81 1007.7
20260505121536 11 144 0.0 0.0 0.00 0.00 0.00 81 1007.6
20260505120028 11 144 0.0 0.0 0.00 0.00 0.00 81 1007.5
20260505114525 12 144 0.0 0.0 0.00 0.00 0.00 81 1007.3
20260505113032 12 144 0.0 0.0 0.00 0.00 0.00 80 1007.1
20260505111533 12 144 0.0 0.0 0.00 0.00 0.00 80 1006.9
20260505101527 12 144 0.0 3.2 0.00 0.00 0.00 80 1006.4
20260505100014 12 144 0.0 0.0 0.00 0.00 0.00 79 1006.2
20260505094519 12 144 0.0 1.6 0.00 0.00 0.00 79 1006.2
20260505093032 12 144 0.0 0.0 0.00 0.00 0.00 79 1006.1
20260505091536 12 144 0.0 0.0 0.00 0.00 0.00 79 1006.1
20260505090019 12 144 0.0 0.0 0.00 0.00 0.00 78 1005.9
20260505084541 12 144 0.0 0.0 0.00 0.00 0.00 77 1005.7
20260505083024 12 144 0.0 0.0 0.00 0.00 0.00 76 1005.7
20260505081528 13 144 0.0 0.0 0.00 0.00 0.00 74 1005.6
20260505080015 14 144 0.0 0.0 0.00 0.00 0.00 73 1005.6
20260505074517 15 144 0.0 0.0 0.00 0.00 0.00 73 1005.4
20260505073022 15 144 0.0 8.0 0.00 0.00 0.00 72 1005.5
20260505071525 15 143 0.0 0.0 0.00 0.00 0.00 69 1005.1
20260505070012 16 143 0.0 0.0 0.00 0.00 0.00 67 1004.8
20260505064518 16 143 0.0 4.8 0.00 0.00 0.00 66 1004.6
20260505063027 17 143 1.6 9.7 0.00 0.00 0.00 64 1004.5
20260505061525 17 143 3.2 6.4 0.00 0.00 0.00 61 1004.3
20260505060010 18 143 6.4 12.9 0.00 0.00 0.00 60 1004.2
20260505054521 17 142 8.0 14.5 0.00 0.00 0.00 61 1004.3
20260505053131 17 142 9.7 14.5 0.00 0.00 0.00 62 1004.2
20260505051537 17 139 4.8 8.0 0.00 0.00 0.00 62 1004.1
20260505041540 18 5 3.2 8.0 0.00 0.00 0.00 63 1004.0
20260505040019 18 5 1.6 6.4 0.00 0.00 0.00 64 1003.9
20260505034526 18 5 0.0 0.0 0.00 0.00 0.00 65 1003.7
20260505033025 18 5 0.0 0.0 0.00 0.00 0.00 64 1003.6
20260505031529 20 5 0.0 0.0 0.00 0.00 0.00 63 1003.4
20260505030015 21 5 0.0 0.0 0.00 0.00 0.00 61 1003.3
20260505024518 23 5 0.0 1.6 0.00 0.00 0.00 57 1003.3
20260505023032 23 5 1.6 4.8 0.00 0.00 0.00 54 1003.2
20260505021537 25 5 3.2 4.8 0.00 0.00 0.00 51 1003.2
20260505020023 27 5 0.0 0.0 0.00 0.00 0.00 43 1003.3
20260505014527 28 5 0.0 0.0 0.00 0.00 0.00 46 1003.4
20260505013135 29 5 0.0 0.0 0.00 0.00 0.00 42 1003.6
20260505011610 29 5 0.0 0.0 0.00 0.00 0.00 32 1003.7
20260505010046 28 45 0.0 3.2 0.00 0.00 0.00 34 1003.9
20260505004547 28 45 0.0 3.2 0.00 0.00 0.00 34 1003.9
20260505003053 28 45 0.0 0.0 0.00 0.00 0.00 33 1004.0
20260505001606 28 46 0.0 4.8 0.00 0.00 0.00 30 1004.2
20260505000041 28 46 3.2 4.8 0.00 0.00 0.00 31 1004.2
20260504234547 28 46 0.0 6.4 0.00 0.00 0.00 31 1004.2
20260504233109 29 46 0.0 4.8 0.00 0.00 0.00 31 1004.3
20260504231605 29 46 0.0 4.8 0.00 0.00 0.00 31 1004.4
20260504230051 28 46 1.6 4.8 0.00 0.00 0.00 30 1004.6
20260504224553 28 46 3.2 4.8 0.00 0.00 0.00 30 1004.7